Location: Karlsruhe
(49.0131°N, 8.3874°E)
Time: 16:45:15
(UTC+01:00)

ISS - Pass Details

Date: 12 February 2018
Orbit: 403 x 407 km, 51.6° (Epoch: 21 February)

Event Time Altitude Azimuth Distance (km) Brightness Sun altitude
Rises 18:31:59 0° 288° (WNW) 2,322 1.2 -8.8°
Reaches altitude 10° 18:34:16 10° 275° (W) 1,459 0.4 -9.1°
Maximum altitude 18:37:03 26° 216° (SW) 833 -1.7 -9.6°
Drops below altitude 10° 18:39:50 10° 158° (SSE) 1,453 -1.2 -10.0°
Sets 18:42:06 0° 145° (SE) 2,309 -0.3 -10.4°
